Tracking 26321 objects as of 27-Nov-2022
HD Live streaming from Space Station
objects crossing your sky now

COSMOS 1408 DEB

Track COSMOS 1408 DEB now!
10-day predictions


NORAD ID: 52928
Int'l Code: 1982-092CAZ
Perigee: 423.2 km
Apogee: 564.2 km
Inclination: 82.5 °
Period: 94.3 minutes
Semi major axis: 6864 km
RCS: Unknown
Launch date: September 16, 1982
Source: Commonwealth of Independent States (former USSR) (CIS)
Launch site: PLESETSK MISSILE AND SPACE COMPLEX (PKMTR)

Note: This is SATELLITE DEBRIS
aabbcc
Your satellite tracking list
Your tracking list is empty




NASA's NSSDC Master Catalog

Two Line Element Set (TLE):
1 52928U 82092CAZ 22311.85382182  .00167308  00000-0  54127-2 0  9999
2 52928  82.5436 139.4729 0102709 270.4563  88.4907 15.26403786 29545
Source of the keplerian elements: AFSPC